Grand Marais, MN

10:41 AM CST on February 13, 2016 (GMT -0600)
Grand Marais

Weather History for KGNA - September, 2012

Change the Weather History Date:

Tuesday, September 11, 2012

  Actual Average (KCKC) Record (KCKC)
Temperature  
Mean Temperature 62 °F -  
Max Temperature 71 °F 63 °F 84 °F (1998)
Min Temperature 55 °F 45 °F 32 °F (1997)
Degree Days  
Heating Degree Days 2    
Growing Degree Days 12 (Base 50)    
Moisture  
Dew Point 56 °F    
Average Humidity 79    
Maximum Humidity 93    
Minimum Humidity 59    
Precipitation  
Precipitation 0.00 in - - ()
Sea Level Pressure  
Sea Level Pressure 29.75 in    
Wind  
Wind Speed 1 mph (NNE)    
Max Wind Speed 7 mph    
Max Gust Speed -    
Averages and records for this station are not official NWS values.
T = Trace of Precipitation, MM = Missing Value Source: NWS Daily Summary

Daily Weather History Graph

Daily Weather History Graph

Search for Another Location

Airport or City:

Trip Planner

Search our weather history database for the weather conditions in past years. The results will help you decide how hot, cold, wet, or windy it might be!

Date:

Astronomy

Sep. 11, 2012 Rise Set
Actual Time 6:33 AM CDT 7:20 PM CDT
Civil Twilight 6:02 AM CDT 7:51 PM CDT
Nautical Twilight 5:25 AM CDT 8:29 PM CDT
Astronomical Twilight 4:46 AM CDT 9:08 PM CDT
Moon 1:34 AM CDT (9/11) 4:45 PM CDT (9/11)
Length of Visible Light 13h 49m
Length of Day
12h 46m
Waning Crescent, 21% of the Moon is Illuminated
Sep 11
Waning Crescent
Sep 15
New
Sep 22
First Quarter
Sep 29
Full
Oct 8
Last Quarter

Hourly Weather History & Observations

Time (CDT) Temp. Dew Point Humidity Pressure Visibility Wind Dir Wind Speed Gust Speed Precip Events Conditions
12:56 AM 57.9 °F 54.0 °F 87% 29.81 in - Calm Calm - N/A   Unknown
1:56 AM 57.9 °F 54.0 °F 87% 29.80 in - NW 3.5 mph - N/A   Unknown
2:56 AM 57.0 °F 53.1 °F 87% 29.79 in - NNW 4.6 mph - N/A   Unknown
3:56 AM 55.0 °F 53.1 °F 93% 29.78 in - Calm Calm - N/A   Unknown
4:56 AM 55.0 °F 52.0 °F 89% 29.78 in - NW 3.5 mph - N/A   Unknown
5:56 AM 55.0 °F 52.0 °F 89% 29.78 in - Calm Calm - N/A   Unknown
6:56 AM 55.0 °F 52.0 °F 89% 29.79 in - Calm Calm - N/A   Unknown
7:56 AM 61.0 °F 55.9 °F 83% 29.79 in - Calm Calm - N/A   Unknown
8:56 AM 64.9 °F 57.9 °F 78% 29.78 in - Calm Calm - N/A   Unknown
9:56 AM 64.9 °F 57.9 °F 78% 29.79 in - Calm Calm - N/A   Unknown
10:56 AM 64.9 °F 57.9 °F 78% 29.78 in - Calm Calm - N/A   Unknown
11:56 AM 66.0 °F 57.9 °F 75% 29.76 in - Calm Calm - N/A   Unknown
12:56 PM 64.9 °F 57.9 °F 78% 29.76 in - Calm Calm - N/A   Unknown
1:56 PM 69.1 °F 60.1 °F 73% 29.75 in - Calm Calm - N/A   Unknown
2:56 PM 70.0 °F 55.0 °F 59% 29.75 in - Calm Calm - N/A   Unknown
3:56 PM 69.1 °F 55.0 °F 61% 29.71 in - Calm Calm - N/A   Unknown
4:56 PM 66.9 °F 59.0 °F 76% 29.71 in - ENE 3.5 mph - N/A   Unknown
5:56 PM 66.9 °F 60.1 °F 79% 29.71 in - ENE 5.8 mph - N/A   Unknown
6:56 PM 66.0 °F 60.1 °F 81% 29.71 in - ENE 6.9 mph - N/A   Unknown
7:56 PM 66.0 °F 59.0 °F 78% 29.70 in - NE 3.5 mph - N/A   Unknown
8:56 PM 70.0 °F 55.9 °F 61% 29.70 in - NE 4.6 mph - N/A   Unknown
9:56 PM 66.0 °F 57.0 °F 73% 29.69 in - Calm Calm - N/A   Unknown
10:56 PM 63.0 °F 57.0 °F 81% 29.70 in - Calm Calm - N/A   Unknown
11:56 PM 62.1 °F 57.9 °F 86% 29.71 in - Calm Calm - N/A   Unknown